TimeCDT,TemperatureF,Dew PointF,Humidity,Sea Level PressureIn,VisibilityMPH,Wind Direction,Wind SpeedMPH,Gust SpeedMPH,PrecipitationIn,Events,Conditions,WindDirDegrees,DateUTC
12:53 AM,75.0,69.1,82,29.88,10.0,South,9.2,17.3,N/A,,Clear,170,2013-10-05 05:53:00
1:53 AM,73.9,69.1,85,29.88,10.0,South,5.8,-,N/A,,Scattered Clouds,180,2013-10-05 06:53:00
2:11 AM,73.9,69.1,85,29.94,10.0,South,8.1,-,N/A,,Mostly Cloudy,190,2013-10-05 07:11:00
2:53 AM,73.9,70.0,87,29.88,10.0,South,4.6,-,N/A,,Overcast,170,2013-10-05 07:53:00
3:23 AM,73.0,69.1,87,29.93,10.0,South,5.8,-,N/A,,Overcast,170,2013-10-05 08:23:00
3:53 AM,73.0,69.1,87,29.88,10.0,SSE,4.6,-,N/A,,Mostly Cloudy,160,2013-10-05 08:53:00
4:53 AM,73.0,69.1,87,29.88,10.0,South,5.8,-,N/A,,Overcast,170,2013-10-05 09:53:00
5:53 AM,73.0,69.1,87,29.88,10.0,South,3.5,-,N/A,,Overcast,170,2013-10-05 10:53:00
6:53 AM,73.0,69.1,87,29.90,10.0,South,3.5,-,N/A,,Overcast,180,2013-10-05 11:53:00
7:53 AM,72.0,69.1,91,29.91,10.0,Calm,Calm,-,N/A,,Mostly Cloudy,0,2013-10-05 12:53:00
8:00 AM,72.0,69.1,91,29.96,10.0,Calm,Calm,-,N/A,,Scattered Clouds,0,2013-10-05 13:00:00
8:35 AM,73.0,69.1,87,29.99,10.0,Calm,Calm,-,N/A,,Mostly Cloudy,0,2013-10-05 13:35:00
8:51 AM,73.4,69.8,88,30.01,10.0,Calm,Calm,-,N/A,,Overcast,0,2013-10-05 13:51:00
8:53 AM,73.9,69.1,85,29.96,10.0,Calm,Calm,-,N/A,,Overcast,0,2013-10-05 13:53:00
9:17 AM,75.0,69.1,82,30.01,10.0,Calm,Calm,-,N/A,,Overcast,0,2013-10-05 14:17:00
9:53 AM,75.9,69.1,79,29.96,10.0,Calm,Calm,-,N/A,,Overcast,0,2013-10-05 14:53:00
10:53 AM,78.1,68.0,71,29.97,10.0,Calm,Calm,-,N/A,,Scattered Clouds,0,2013-10-05 15:53:00
11:53 AM,81.0,68.0,65,29.97,10.0,Variable,3.5,-,N/A,,Partly Cloudy,0,2013-10-05 16:53:00
12:53 PM,73.0,59.0,61,29.99,10.0,North,16.1,24.2,N/A,,Unknown,360,2013-10-05 17:53:00
1:53 PM,75.0,55.9,51,29.98,10.0,North,13.8,20.7,N/A,,Clear,360,2013-10-05 18:53:00
2:53 PM,75.0,54.0,48,29.96,10.0,North,10.4,-,N/A,,Clear,360,2013-10-05 19:53:00
3:53 PM,73.9,52.0,46,29.96,10.0,North,11.5,19.6,N/A,,Partly Cloudy,360,2013-10-05 20:53:00
4:16 PM,73.9,52.0,46,30.01,10.0,North,13.8,19.6,N/A,,Mostly Cloudy,350,2013-10-05 21:16:00
4:53 PM,73.0,51.1,46,29.97,10.0,North,13.8,20.7,N/A,,Overcast,10,2013-10-05 21:53:00
5:53 PM,69.1,48.0,47,29.99,10.0,North,12.7,21.9,N/A,,Mostly Cloudy,350,2013-10-05 22:53:00
6:05 PM,68.0,48.0,49,30.04,10.0,North,12.7,20.7,N/A,,Scattered Clouds,350,2013-10-05 23:05:00
6:53 PM,63.0,46.9,56,30.02,10.0,North,13.8,-,N/A,,Partly Cloudy,360,2013-10-05 23:53:00
7:08 PM,63.0,46.0,54,30.06,10.0,North,15.0,20.7,N/A,,Mostly Cloudy,360,2013-10-06 00:08:00
7:53 PM,62.1,42.1,48,30.05,10.0,North,12.7,21.9,N/A,,Overcast,350,2013-10-06 00:53:00
8:53 PM,61.0,37.9,42,30.06,10.0,North,8.1,17.3,N/A,,Overcast,10,2013-10-06 01:53:00
9:53 PM,60.1,41.0,49,30.09,10.0,North,10.4,-,N/A,,Overcast,360,2013-10-06 02:53:00
10:01 PM,60.1,41.0,49,30.13,10.0,North,11.5,18.4,N/A,,Overcast,360,2013-10-06 03:01:00
10:53 PM,60.1,44.1,55,30.09,10.0,North,12.7,-,N/A,,Overcast,10,2013-10-06 03:53:00
11:53 PM,60.1,44.1,55,30.08,10.0,North,9.2,-,N/A,,Overcast,360,2013-10-06 04:53:00